Погода в Петушках

Россия / Владимирская область     55°55′51″N   39°27′35″E
темп.,
°C
ветер,
м/с
пор.,
м/с
влажн.,
%
обл.,
%
осадки,
мм/ч
давл.,
гПа
погр.,
м
9 марта, вт
вт900:00−15сз26960 0.0 1009132
03:00−16сз25979 0.0 1011119
06:00−18ссз279755 0.0 1013156
09:00−17ссз369264 0.0 1014295
12:00−13ссз358480 0.0 1016559
15:00−12ссз368390 0.0 1017700
18:00−15ссз3792100 0.1 1018358
21:00−19ссз3895100 0.1 1021301
10 марта, ср
ср1000:00−22ссз379777 0.0 1022197
03:00−24ссз379773 0.0 1024172
06:00−25ссз37960 0.0 1026210
09:00−23с36919 0.0 1028292
12:00−18с36821 0.0 1028489
15:00−16с36760 0.0 1029602
18:00−18ссз22880 0.0 102921
21:00−20сз24950 0.0 103083
11 марта, чт
чт1100:00−21сз249353 0.0 103187
03:00−22сз239752 0.0 103255
06:00−22сз22980 0.0 103226
09:00−18сз23920 0.0 1033173
12:00−11сз127943 0.0 1033476
15:00−9з227567 0.0 1032721
18:00−12юз229197 0.0 103220
21:00−16зюз239555 0.0 103220
12 марта, пт
пт1200:00−18юз23950 0.0 103327
03:00−19юз23960 0.0 103345
06:00−21ююз24910 0.0 103392
09:00−17ююз38780 0.0 1032270
12:00−10ююз48720 0.0 1031518
15:00−8ююз59720 0.0 1030720
18:00−11ю411840 0.0 1029503
21:00−14ю414890 0.0 1029436
13 марта, сб
сб1300:00−14ю414860 0.0 1028493
03:00−13ю5168317 0.0 1026538
06:00−12ю61682100 0.0 1024648
09:00−9ю71491100 0.2 1022813
12:00−6ююз71388100 0.6 1022944
15:00−5ююз71291100 1.5 1020906
18:00−5ююз61291100 0.6 1020762
21:00−6ююз51393100 0.8 1019572